Location: Katowice
(50.2611°N, 19.0242°E)
Time: 04:05:35
(UTC+02:00)

Explorer 7 - Pass Details

Date: 28 August 2019
Orbit: 485 x 680 km, 50.3° (Epoch: 17 October)

Event Time Altitude Azimuth Distance (km) Brightness Sun altitude
Rises 08:37:14 0° 230° (SW) 3,025 10.3 25.2°
Reaches altitude 10° 08:39:42 10° 224° (SW) 2,105 9.6 25.6°
Maximum altitude 08:44:20 45° 152° (SSE) 903 8.8 26.3°
Drops below altitude 10° 08:48:51 10° 80° (E) 2,045 10.9 27.0°
Sets 08:51:12 0° 75° (ENE) 2,928 11.3 27.4°
